Wind_Speed
25 26 26 27 28 28 26 24 23 22 23 24 25 26 26 26 26 26 26 25 25 25 25 24 24 23 23 22 22 22 21 20 20 19 18 17 17 16 15 15 14 14 13 13 12 12 12 11 10
27 28 28 29 30 29 27 26 25 26 26 27 27 28 28 28 28 28 28 27 27 27 27 26 27 26 26 25 24 24 24 23 22 21 20 19 19 18 18 17 17 16 15 15 14 14 14 13 12
29 29 30 31 31 30 28 27 28 29 30 30 30 30 31 30 30 30 30 30 30 29 29 29 29 29 28 28 27 26 26 25 25 24 23 22 21 20 20 19 19 18 18 17 16 15 15 15 14
31 32 32 33 31 30 30 30 31 32 33 33 33 34 33 33 33 32 33 33 33 32 32 32 31 31 31 31 30 29 29 28 27 27 26 25 24 23 22 21 21 21 20 19 18 17 17 17 16
32 33 34 34 33 32 32 33 33 34 35 36 37 36 36 36 35 35 35 35 35 35 34 34 34 34 33 33 33 32 32 31 30 29 28 28 27 26 25 24 23 23 22 21 20 20 19 18 17
32 33 34 34 33 34 34 34 36 37 38 39 40 40 39 39 39 38 37 38 38 37 37 37 36 36 36 35 34 34 34 33 33 32 31 30 29 28 27 26 26 25 24 23 23 22 21 20 19
32 33 34 34 35 35 35 36 37 38 39 41 42 42 41 41 41 41 40 40 40 40 40 39 38 38 38 37 36 36 35 35 35 34 34 33 32 30 29 29 29 28 27 26 25 24 23 22 21
32 34 34 35 36 36 36 37 38 39 40 42 43 44 42 42 43 43 42 42 42 42 42 41 40 40 40 39 38 38 38 37 36 36 35 35 34 33 33 32 31 30 29 28 27 26 26 25 24
33 35 36 36 37 37 38 39 39 41 42 43 44 44 44 44 44 44 44 43 43 43 44 43 43 42 42 42 41 40 40 39 39 38 37 37 36 36 35 34 34 33 32 30 30 29 28 27 26
34 35 36 37 38 39 39 40 40 41 42 43 44 45 46 45 46 46 45 44 45 45 45 45 45 44 44 44 43 43 42 41 41 40 39 39 38 38 37 37 36 35 34 33 32 31 30 29 28
34 35 35 36 38 39 39 40 40 42 42 43 44 45 46 47 47 48 47 46 46 46 46 46 46 46 46 46 46 45 44 43 42 42 41 41 40 39 39 38 38 37 36 35 34 33 32 31 30
34 34 35 37 39 40 40 40 41 42 42 44 45 46 47 49 49 49 48 48 48 48 47 48 48 48 48 48 48 48 46 46 45 44 44 43 42 41 40 39 39 38 38 37 36 35 34 33 32
33 33 35 37 39 40 41 41 41 41 43 44 45 47 47 48 49 50 50 49 49 49 49 49 49 50 50 50 49 49 48 48 47 47 46 45 44 44 43 41 40 40 40 39 38 37 35 35 33
33 34 35 36 38 39 40 40 41 41 44 44 45 46 47 48 50 51 51 49 48 49 50 50 51 51 51 51 51 50 50 50 49 49 48 47 46 45 44 44 43 42 42 41 40 39 37 36 35
33 33 34 35 37 39 40 39 40 41 42 43 44 45 46 48 50 51 50 49 50 50 51 51 51 52 52 52 52 52 50 51 51 51 50 48 47 47 46 45 45 44 43 43 42 41 40 38 37
32 33 33 34 36 38 39 37 37 39 40 41 42 43 44 45 48 49 50 50 51 51 51 51 51 52 53 52 53 53 51 51 52 51 51 50 49 49 48 47 47 46 45 45 44 43 42 41 40
32 33 33 34 36 38 39 37 36 38 40 40 41 42 42 43 45 47 48 49 51 51 50 50 51 52 53 53 53 53 53 53 53 52 52 52 51 50 50 49 49 49 47 46 46 44 44 43 41
32 33 33 34 36 37 39 38 37 39 40 40 40 40 41 41 42 44 46 46 49 50 50 50 51 51 52 53 53 53 53 52 53 53 52 52 51 51 50 50 49 50 50 48 47 46 46 45 43
33 34 34 34 36 37 37 37 37 38 40 40 41 41 40 40 41 42 43 45 46 47 47 49 48 49 52 53 53 52 52 53 52 53 53 52 51 51 50 50 50 50 51 50 48 47 47 46 45
34 35 36 36 36 38 37 36 36 37 38 39 41 41 39 40 40 41 42 43 45 46 46 47 47 49 50 51 51 52 52 52 52 53 53 52 52 52 50 50 51 51 51 51 50 49 48 48 46
34 36 37 38 37 38 39 36 34 36 37 38 39 39 40 40 39 39 41 42 43 45 45 46 47 48 49 49 51 52 52 52 52 53 52 52 52 51 51 51 51 51 51 50 51 50 48 49 47
35 37 38 39 38 37 38 38 33 34 35 36 38 38 39 38 38 39 40 41 42 42 43 45 44 45 46 47 49 50 51 51 52 52 51 52 52 51 52 52 51 51 51 51 51 50 49 49 48
37 37 38 38 37 37 36 38 35 35 35 35 36 37 37 36 37 37 38 39 39 40 41 42 42 44 45 46 47 47 49 50 51 51 51 51 52 51 51 51 50 50 51 50 51 50 50 49 48
36 37 37 37 36 37 35 37 36 35 34 35 35 36 36 35 35 35 36 37 38 38 38 40 42 43 44 45 45 45 45 47 48 48 50 49 50 50 49 49 50 50 50 50 51 50 49 49 49
35 36 37 37 37 37 36 37 36 35 34 36 36 35 34 34 33 33 35 36 35 35 37 39 40 40 41 42 42 44 45 45 46 47 47 48 48 48 48 48 48 49 50 50 50 48 48 48 49
36 36 36 38 39 38 36 37 35 34 35 36 35 34 33 33 33 32 33 34 34 35 36 37 38 38 40 40 41 42 43 43 44 46 47 47 47 46 46 48 47 47 49 50 50 48 47 47 48
37 36 36 38 39 39 38 37 35 34 36 35 34 33 33 32 32 31 31 31 33 35 37 37 37 37 38 39 39 41 42 42 43 44 46 46 46 46 47 48 47 46 47 49 49 47 46 46 46
36 37 37 37 39 41 40 38 37 36 35 35 34 32 30 29 30 31 31 32 33 34 36 37 37 36 38 38 38 39 40 41 42 43 44 44 45 45 45 46 45 46 47 47 47 47 46 46 45
36 36 37 38 39 41 42 39 36 36 35 35 33 31 30 29 30 30 30 30 32 33 35 36 36 36 36 37 37 38 39 39 41 42 44 44 43 44 44 45 45 45 46 46 45 45 44 44 44
36 37 37 38 40 41 42 40 36 36 36 35 33 31 30 30 30 30 29 29 31 32 34 35 36 36 37 37 37 37 37 38 39 41 43 43 43 44 44 44 45 44 46 46 45 44 44 44 43
Wind_Direction
262 261 260 260 260 260 261 263 263 262 261 258 256 256 256 255 255 255 255 253 252 251 250 251 251 252 252 252 251 248 247 246 247 247 246 245 245 248 251 252 254 257 261 267 271 274 278 281 286
264 263 262 261 262 263 264 265 264 262 260 258 257 257 256 256 256 256 256 254 253 252 251 250 250 250 250 251 251 250 248 248 248 248 247 248 248 249 252 253 254 257 260 265 269 272 274 276 279
264 263 263 263 263 265 267 265 263 261 260 259 259 259 258 258 257 256 255 255 253 252 251 250 250 249 249 250 250 249 248 248 248 249 248 249 250 251 252 253 254 256 259 263 267 270 271 272 274
264 264 263 264 265 266 266 265 263 262 261 260 260 260 260 259 258 257 256 255 253 252 251 251 250 250 250 249 249 249 248 248 248 249 250 249 250 251 252 253 254 256 257 261 264 267 269 270 271
264 264 264 265 266 267 266 266 265 264 263 262 261 260 260 259 258 257 256 256 254 253 251 251 251 250 250 250 250 250 249 248 248 249 250 250 250 251 251 252 254 256 257 259 262 264 266 267 268
266 266 266 267 267 267 266 265 265 264 263 263 262 261 260 260 258 257 256 255 255 253 252 251 251 251 250 250 250 250 249 249 249 249 250 251 251 251 252 252 253 255 257 258 260 262 264 265 267
267 267 268 268 268 267 267 267 266 266 265 264 263 262 261 260 259 257 256 255 254 253 253 252 251 251 250 249 249 250 249 249 249 249 250 250 251 251 252 252 252 253 255 257 259 260 261 263 265
268 268 269 269 268 269 269 268 268 267 267 265 264 263 261 259 258 258 256 256 255 253 252 252 251 250 250 249 248 248 248 248 249 249 249 249 250 251 252 252 252 253 254 256 257 259 260 261 262
269 270 270 271 271 270 270 270 269 268 267 266 264 263 261 259 258 257 256 256 255 254 253 251 250 249 249 248 247 247 247 248 248 249 250 250 251 251 252 252 253 253 254 255 256 257 258 259 260
271 273 274 274 273 272 272 271 270 270 269 266 265 264 262 260 257 257 256 255 255 254 253 252 250 249 248 248 247 248 247 248 249 249 249 250 251 252 252 252 252 253 254 253 253 255 257 257 258
274 275 276 275 274 273 273 273 273 272 269 267 265 264 262 260 258 256 255 254 253 253 253 252 251 250 249 248 248 248 248 248 248 249 248 249 250 251 252 252 252 252 253 253 252 252 254 255 255
277 277 277 277 276 276 276 275 274 273 271 268 267 266 263 260 258 256 254 253 253 252 251 251 251 250 249 248 248 248 248 248 248 249 249 249 249 250 250 251 252 251 251 252 252 252 254 255 254
278 278 279 279 279 279 280 279 277 275 271 269 269 268 264 260 257 255 254 254 251 251 251 251 250 249 249 248 248 247 247 248 248 249 249 249 249 249 250 250 250 250 250 250 252 252 254 254 254
281 281 282 283 283 282 281 280 279 277 274 272 271 270 266 261 257 256 255 255 252 251 251 251 250 248 248 248 248 247 247 247 248 249 249 249 249 249 249 249 249 249 249 249 250 251 252 254 254
282 282 284 285 285 285 284 282 281 280 278 274 274 273 269 262 258 257 255 255 252 251 251 251 250 249 248 247 247 247 247 247 247 248 249 249 248 248 248 248 248 247 247 247 248 249 250 253 255
284 284 285 285 287 287 286 285 284 282 281 277 275 275 271 265 260 257 255 254 252 251 251 251 250 248 248 247 247 247 246 246 246 247 248 248 247 247 247 247 247 247 246 246 247 248 250 252 254
288 287 287 287 286 286 285 286 285 283 282 279 277 276 274 268 261 258 256 254 253 252 252 251 250 249 248 247 247 247 246 245 246 246 247 247 246 246 246 246 247 246 245 246 246 246 249 250 252
292 289 290 290 287 286 287 287 286 286 284 280 279 279 276 270 264 258 256 256 254 252 252 251 250 249 249 248 247 247 246 246 245 245 246 246 246 245 245 245 246 246 245 245 244 245 246 248 250
297 295 294 294 290 288 288 289 289 288 285 282 281 279 274 273 269 261 257 255 253 252 251 250 250 249 249 249 248 248 247 246 245 245 245 245 244 244 244 244 244 244 244 243 243 243 245 247 249
297 296 296 295 292 290 290 290 292 291 288 285 282 278 274 274 269 260 257 254 253 253 252 251 250 249 250 250 250 249 247 246 245 245 245 244 244 244 244 243 243 243 243 243 242 242 244 246 248
297 297 297 297 294 290 291 292 294 293 292 288 284 280 277 276 271 261 256 254 253 253 252 250 249 250 250 250 250 247 246 246 245 245 244 244 244 244 243 243 242 242 240 241 242 242 243 245 247
298 298 298 298 296 294 293 295 297 297 295 291 287 283 280 278 273 264 258 255 253 253 252 250 249 251 251 251 248 246 247 247 245 244 244 244 243 243 242 242 241 241 240 240 240 241 243 244 245
299 300 300 299 298 296 295 297 300 299 297 294 290 286 282 279 275 266 259 256 253 252 252 251 251 252 252 252 248 248 248 247 244 243 244 244 242 241 241 242 241 240 239 239 239 241 242 244 244
299 300 300 299 299 298 298 298 302 302 300 298 293 289 285 280 277 267 260 254 253 253 253 253 251 251 251 250 248 248 248 246 244 244 242 241 240 239 240 241 240 240 239 238 238 239 241 242 244
298 299 300 300 299 299 300 299 302 303 302 300 297 292 286 280 276 269 261 255 254 255 254 254 252 251 251 250 248 248 248 245 244 242 241 238 238 238 238 238 239 238 237 237 236 238 240 241 243
298 300 300 300 301 300 300 301 304 303 303 303 298 292 285 280 276 272 264 257 255 257 256 255 253 252 251 250 249 248 246 244 244 242 239 237 237 237 237 237 238 237 237 236 236 237 239 241 242
298 300 300 299 299 300 300 301 301 303 303 302 299 292 284 279 274 270 263 257 257 258 257 257 254 252 250 249 247 246 244 244 243 241 238 237 236 235 237 236 236 236 236 236 237 238 239 241 243
296 298 300 301 300 301 301 303 304 304 304 302 297 291 281 275 271 268 261 257 259 257 255 254 252 251 250 249 247 245 246 245 243 240 238 237 236 236 237 236 235 235 234 235 236 238 240 242 243
295 295 297 298 299 300 301 305 308 305 303 301 296 291 283 278 273 268 263 263 262 258 255 253 252 250 249 249 247 246 246 244 243 240 238 236 235 236 236 235 234 235 233 234 236 238 240 242 243
292 294 295 297 297 298 298 303 307 303 301 299 295 291 284 278 274 268 265 264 262 259 256 252 251 249 248 249 249 246 245 243 241 239 237 236 235 235 234 234 234 233 233 233 236 239 240 241 241
Height
5803 5804 5805 5806 5807 5808 5809 5812 5813 5814 5815 5816 5816 5817 5818 5820 5822 5826 5826 5826 5827 5828 5830 5831 5832 5834 5835 5837 5838 5840 5841 5843 5844 5845 5847 5848 5849 5850 5851 5852 5853 5854 5855 5856 5856 5857 5857 5857 5857
5798 5799 5800 5800 5801 5802 5805 5807 5808 5809 5809 5810 5811 5812 5813 5814 5816 5818 5819 5820 5821 5823 5825 5826 5827 5829 5830 5832 5834 5835 5837 5839 5840 5842 5843 5844 5846 5847 5848 5849 5850 5851 5852 5853 5854 5855 5855 5855 5855
5793 5793 5794 5794 5795 5797 5800 5802 5802 5802 5803 5804 5805 5806 5807 5809 5810 5812 5813 5814 5816 5818 5819 5821 5822 5824 5825 5827 5829 5831 5832 5834 5836 5837 5839 5840 5842 5843 5844 5846 5847 5848 5849 5850 5851 5852 5852 5853 5853
5787 5787 5788 5789 5790 5792 5793 5795 5795 5795 5796 5797 5798 5799 5800 5802 5803 5805 5807 5808 5810 5811 5813 5815 5816 5818 5820 5821 5823 5825 5827 5829 5831 5832 5834 5836 5837 5839 5840 5842 5843 5844 5845 5846 5848 5848 5849 5850 5850
5780 5780 5781 5782 5783 5785 5786 5787 5787 5787 5788 5789 5790 5792 5793 5795 5796 5797 5799 5801 5803 5804 5806 5808 5810 5812 5814 5816 5817 5819 5821 5823 5825 5827 5829 5830 5832 5834 5836 5837 5839 5840 5841 5842 5844 5845 5845 5846 5847
5773 5773 5774 5775 5777 5778 5779 5779 5779 5779 5780 5781 5781 5783 5785 5786 5787 5789 5791 5793 5794 5797 5798 5800 5803 5805 5807 5809 5811 5813 5815 5817 5819 5821 5823 5825 5827 5829 5831 5833 5834 5835 5837 5838 5839 5840 5842 5842 5843
5766 5766 5766 5768 5769 5770 5771 5771 5771 5771 5771 5772 5772 5773 5776 5777 5778 5780 5782 5784 5786 5788 5790 5792 5794 5797 5799 5801 5804 5806 5808 5810 5812 5814 5817 5819 5821 5823 5825 5827 5829 5830 5832 5833 5835 5836 5837 5838 5839
5758 5759 5759 5759 5760 5761 5762 5762 5762 5762 5762 5762 5761 5763 5766 5767 5768 5770 5772 5774 5776 5779 5781 5784 5786 5788 5791 5793 5796 5798 5801 5803 5805 5808 5810 5812 5815 5817 5819 5821 5823 5824 5826 5828 5829 5831 5832 5833 5834
5750 5751 5750 5751 5751 5752 5752 5752 5752 5751 5751 5751 5751 5752 5755 5756 5758 5759 5762 5764 5766 5768 5771 5774 5777 5779 5782 5785 5787 5790 5793 5795 5797 5800 5803 5805 5808 5810 5812 5814 5816 5818 5820 5822 5824 5825 5827 5828 5829
5741 5741 5742 5742 5741 5741 5741 5741 5741 5740 5740 5740 5740 5741 5742 5744 5746 5748 5750 5753 5755 5758 5760 5763 5767 5770 5772 5775 5778 5781 5784 5787 5789 5792 5795 5797 5800 5802 5805 5807 5809 5811 5813 5815 5817 5819 5820 5822 5824
5732 5732 5732 5731 5730 5730 5730 5730 5729 5728 5728 5728 5728 5728 5729 5730 5733 5735 5738 5741 5744 5747 5749 5752 5755 5759 5762 5765 5768 5772 5775 5778 5781 5784 5786 5789 5792 5794 5797 5799 5802 5804 5806 5808 5810 5812 5813 5815 5817
5724 5723 5722 5721 5720 5719 5719 5719 5718 5716 5717 5716 5715 5715 5715 5716 5718 5721 5724 5728 5731 5734 5737 5740 5743 5747 5751 5754 5758 5761 5765 5768 5771 5774 5777 5780 5783 5786 5789 5791 5794 5796 5799 5801 5803 5805 5807 5808 5811
5714 5714 5712 5711 5709 5708 5707 5707 5706 5706 5703 5702 5701 5700 5700 5701 5704 5707 5710 5713 5716 5720 5724 5727 5730 5734 5738 5742 5746 5750 5754 5757 5761 5764 5767 5770 5773 5776 5779 5782 5785 5788 5790 5793 5796 5798 5800 5802 5804
5705 5704 5703 5701 5699 5697 5696 5696 5693 5693 5690 5688 5687 5686 5686 5686 5689 5692 5696 5699 5703 5707 5710 5713 5716 5720 5725 5729 5734 5738 5742 5746 5749 5753 5756 5759 5763 5766 5769 5773 5776 5779 5782 5785 5788 5791 5793 5795 5797
5696 5695 5694 5691 5689 5687 5685 5685 5683 5680 5677 5676 5674 5672 5671 5672 5674 5678 5682 5686 5690 5694 5697 5699 5702 5706 5711 5716 5720 5725 5729 5733 5737 5741 5744 5748 5751 5755 5759 5762 5765 5769 5772 5775 5779 5782 5785 5787 5789
5687 5686 5685 5683 5680 5677 5676 5675 5673 5668 5665 5664 5662 5660 5658 5659 5660 5663 5667 5672 5675 5679 5683 5686 5689 5693 5697 5702 5707 5711 5715 5720 5723 5728 5732 5736 5740 5744 5748 5751 5755 5759 5762 5766 5770 5773 5776 5779 5781
5678 5677 5675 5674 5670 5667 5664 5664 5663 5658 5655 5652 5651 5649 5647 5646 5648 5651 5654 5657 5661 5665 5669 5672 5676 5679 5684 5688 5693 5697 5702 5706 5710 5715 5719 5723 5727 5731 5735 5740 5744 5748 5751 5755 5760 5764 5767 5770 5773
5671 5668 5666 5664 5661 5658 5655 5653 5652 5647 5643 5641 5639 5638 5636 5636 5637 5639 5642 5644 5648 5651 5655 5659 5662 5666 5670 5674 5679 5683 5687 5692 5696 5701 5706 5710 5714 5719 5723 5727 5732 5735 5740 5745 5749 5754 5758 5761 5764
5663 5660 5658 5655 5651 5648 5646 5643 5641 5637 5633 5631 5628 5627 5626 5625 5626 5626 5629 5631 5635 5638 5641 5645 5649 5653 5657 5661 5666 5670 5674 5678 5683 5687 5692 5696 5701 5705 5710 5715 5719 5724 5728 5733 5738 5743 5747 5751 5754
5655 5652 5649 5647 5642 5638 5636 5634 5632 5627 5623 5620 5618 5616 5615 5614 5614 5615 5618 5620 5623 5626 5629 5633 5637 5641 5644 5648 5653 5656 5661 5665 5669 5673 5678 5683 5687 5692 5697 5702 5707 5711 5716 5721 5727 5732 5736 5740 5744
5648 5643 5640 5637 5634 5630 5626 5626 5623 5619 5614 5610 5607 5605 5603 5603 5603 5604 5607 5609 5612 5615 5618 5622 5625 5628 5631 5635 5639 5642 5646 5651 5656 5660 5665 5669 5674 5679 5684 5689 5694 5699 5704 5710 5715 5721 5725 5730 5734
5640 5636 5632 5627 5624 5621 5618 5614 5616 5610 5605 5600 5597 5595 5593 5592 5592 5593 5595 5598 5601 5604 5607 5610 5613 5616 5619 5622 5626 5630 5634 5638 5643 5647 5652 5656 5661 5666 5671 5676 5681 5687 5692 5698 5704 5709 5714 5719 5723
5632 5627 5624 5620 5615 5613 5611 5606 5607 5602 5597 5593 5589 5586 5583 5582 5582 5582 5584 5587 5590 5593 5596 5599 5602 5605 5607 5610 5614 5617 5621 5625 5630 5634 5638 5643 5648 5653 5658 5663 5669 5674 5680 5686 5692 5698 5703 5708 5714
5623 5620 5616 5612 5608 5606 5604 5599 5597 5594 5590 5586 5581 5577 5575 5574 5574 5574 5575 5578 5581 5583 5585 5587 5590 5594 5596 5599 5602 5606 5609 5613 5617 5621 5626 5630 5635 5640 5646 5651 5657 5663 5669 5675 5681 5686 5692 5698 5703
5616 5612 5608 5603 5600 5598 5595 5591 5590 5587 5582 5577 5574 5570 5567 5565 5565 5566 5568 5570 5573 5574 5576 5577 5580 5583 5585 5588 5592 5595 5598 5601 5606 5610 5614 5619 5624 5630 5635 5640 5645 5651 5657 5663 5669 5675 5681 5687 5693
5609 5605 5601 5595 5591 5589 5587 5584 5585 5580 5575 5570 5566 5562 5560 5559 5558 5559 5560 5562 5564 5566 5567 5569 5571 5574 5576 5579 5582 5585 5588 5591 5595 5599 5604 5609 5614 5619 5624 5629 5634 5640 5646 5652 5658 5664 5671 5677 5682
5601 5598 5594 5588 5583 5580 5579 5577 5577 5573 5567 5562 5558 5555 5553 5552 5552 5552 5554 5555 5557 5558 5559 5560 5562 5565 5567 5569 5572 5575 5578 5581 5585 5589 5594 5599 5604 5609 5614 5619 5625 5630 5636 5642 5649 5655 5661 5667 5673
5595 5590 5586 5581 5574 5570 5569 5569 5568 5564 5559 5555 5551 5548 5546 5546 5546 5546 5547 5548 5548 5549 5551 5552 5554 5556 5559 5561 5563 5566 5568 5571 5575 5579 5584 5589 5594 5599 5604 5610 5616 5622 5628 5633 5640 5646 5652 5658 5664
5587 5584 5578 5573 5569 5563 5558 5562 5561 5555 5550 5546 5543 5540 5538 5538 5539 5538 5539 5540 5540 5541 5542 5544 5546 5548 5550 5552 5554 5557 5559 5562 5566 5570 5574 5579 5584 5589 5595 5600 5606 5612 5619 5625 5632 5638 5643 5649 5654
5579 5576 5572 5567 5562 5556 5550 5553 5553 5548 5542 5538 5535 5533 5531 5531 5531 5531 5531 5532 5532 5533 5535 5536 5537 5539 5541 5543 5545 5547 5550 5553 5556 5560 5565 5570 5575 5580 5586 5591 5597 5603 5610 5617 5623 5629 5634 5640 5645